WZZ745 LZIB-LROP

Flight info

Callsign WZZ745
Flight time 1h 6m
Altitude 31000
Route NIT M748 ERGOM/N0444F370 DCT DEGET DCT EKNAB DCT LAMIT DCT TOSVI
Aircraft A20N/M-SDE2E3FGHIRWXY/LB1

Departure

Time 2026-05-04 19:13
Airport M. R. Štefánik Airport (LZIB)

Arrival

Time 2026-05-04 20:20
Airport Bucharest Henri Coandă International Airport (LROP)
Time Latitude Longitude Altitude Speed Heading
2026-05-04 18:45 48.16889 17.20062 444 ft 0 kts 314°
2026-05-04 18:58 48.16885 17.20069 432 ft 2 kts 314°
2026-05-04 18:59 48.16874 17.20085 439 ft 2 kts 314°
2026-05-04 18:59 48.16864 17.20101 432 ft 2 kts 314°
2026-05-04 18:59 48.16854 17.20112 432 ft 1 kts 354°
2026-05-04 18:59 48.16846 17.20113 429 ft 1 kts 30°
2026-05-04 19:00 48.16844 17.20112 443 ft 0 kts 38°
2026-05-04 19:02 48.16845 17.20112 443 ft 0 kts 38°
2026-05-04 19:03 48.16845 17.20113 443 ft 0 kts 38°
2026-05-04 19:03 48.16861 17.20132 427 ft 6 kts 38°
2026-05-04 19:03 48.16902 17.20189 443 ft 10 kts 45°
2026-05-04 19:03 48.16960 17.20270 432 ft 13 kts 42°
2026-05-04 19:04 48.17021 17.20356 440 ft 9 kts 44°
2026-05-04 19:04 48.17073 17.20431 440 ft 12 kts 45°
2026-05-04 19:04 48.17137 17.20525 443 ft 13 kts 43°
2026-05-04 19:04 48.17209 17.20575 443 ft 12 kts 343°
2026-05-04 19:05 48.17286 17.20472 441 ft 12 kts 313°
2026-05-04 19:05 48.17319 17.20421 439 ft 1 kts 315°
2026-05-04 19:05 48.17356 17.20366 434 ft 13 kts 315°
2026-05-04 19:05 48.17424 17.20301 431 ft 8 kts 351°
2026-05-04 19:06 48.17454 17.20304 438 ft 0 kts
2026-05-04 19:07 48.17456 17.20305 439 ft 1 kts
2026-05-04 19:07 48.17457 17.20305 439 ft 0 kts 10°
2026-05-04 19:08 48.17468 17.20309 438 ft 6 kts 13°
2026-05-04 19:08 48.17523 17.20359 433 ft 12 kts 49°
2026-05-04 19:08 48.17545 17.20437 435 ft 6 kts 120°
2026-05-04 19:09 48.17536 17.20455 444 ft 0 kts 135°
2026-05-04 19:13 48.17478 17.20544 440 ft 47 kts 135°
2026-05-04 19:13 48.17056 17.21206 441 ft 125 kts 134°
2026-05-04 19:13 48.16321 17.22356 640 ft 164 kts 133°
2026-05-04 19:13 48.15587 17.23546 1684 ft 149 kts 137°
2026-05-04 19:14 48.14884 17.24699 2585 ft 154 kts 142°
2026-05-04 19:14 48.14078 17.25888 3169 ft 173 kts 142°
2026-05-04 19:14 48.13158 17.27232 3651 ft 197 kts 142°
2026-05-04 19:14 48.12245 17.28982 4039 ft 233 kts 119°
2026-05-04 19:15 48.11938 17.31527 4546 ft 267 kts 89°
2026-05-04 19:15 48.12402 17.34352 4915 ft 288 kts 72°
2026-05-04 19:15 48.13160 17.37129 5163 ft 289 kts 70°
2026-05-04 19:15 48.13569 17.40012 5774 ft 286 kts 95°
2026-05-04 19:16 48.13168 17.42871 6862 ft 280 kts 111°
2026-05-04 19:16 48.12536 17.45643 7822 ft 283 kts 112°
2026-05-04 19:16 48.11873 17.48440 8789 ft 286 kts 112°
2026-05-04 19:16 48.11194 17.51258 9776 ft 289 kts 112°
2026-05-04 19:17 48.10496 17.54133 10505 ft 301 kts 113°
2026-05-04 19:17 48.09747 17.57197 10845 ft 325 kts 112°
2026-05-04 19:17 48.08946 17.60479 11272 ft 343 kts 112°
2026-05-04 19:17 48.08128 17.63852 12101 ft 348 kts 112°
2026-05-04 19:18 48.07302 17.67278 12927 ft 352 kts 112°
2026-05-04 19:18 48.06466 17.70747 13748 ft 357 kts 112°
2026-05-04 19:18 48.05614 17.74261 14483 ft 362 kts 112°
2026-05-04 19:18 48.04749 17.77809 15217 ft 366 kts 112°
2026-05-04 19:19 48.03869 17.81398 15960 ft 370 kts 112°
2026-05-04 19:19 48.02974 17.85038 16670 ft 374 kts 112°
2026-05-04 19:19 48.02069 17.88711 17381 ft 379 kts 111°
2026-05-04 19:19 48.01151 17.92427 18090 ft 383 kts 111°
2026-05-04 19:20 48.00224 17.96179 18725 ft 387 kts 111°
2026-05-04 19:20 47.99283 17.99977 19345 ft 391 kts 111°
2026-05-04 19:20 47.98345 18.03758 19854 ft 396 kts 111°
2026-05-04 19:20 47.97383 18.07633 20488 ft 399 kts 111°
2026-05-04 19:21 47.96414 18.11526 21116 ft 402 kts 111°
2026-05-04 19:21 47.95435 18.15456 21713 ft 406 kts 111°
2026-05-04 19:21 47.94443 18.19430 22282 ft 410 kts 110°
2026-05-04 19:21 47.93439 18.23444 22858 ft 414 kts 110°
2026-05-04 19:22 47.92427 18.27485 23434 ft 418 kts 110°
2026-05-04 19:22 47.91402 18.31570 23929 ft 422 kts 110°
2026-05-04 19:22 47.90368 18.35682 24439 ft 425 kts 110°
2026-05-04 19:22 47.89329 18.39813 24922 ft 428 kts 110°
2026-05-04 19:23 47.88278 18.43980 25402 ft 431 kts 110°
2026-05-04 19:23 47.87220 18.48169 25867 ft 433 kts 110°
2026-05-04 19:23 47.86158 18.52370 26369 ft 435 kts 110°
2026-05-04 19:23 47.85099 18.56545 26799 ft 438 kts 110°
2026-05-04 19:24 47.84017 18.60806 27227 ft 441 kts 110°
2026-05-04 19:24 47.82926 18.65091 27652 ft 444 kts 110°
2026-05-04 19:24 47.81824 18.69402 28054 ft 447 kts 111°
2026-05-04 19:24 47.80480 18.73580 28456 ft 450 kts 121°
2026-05-04 19:25 47.78664 18.77383 28818 ft 453 kts 127°
2026-05-04 19:25 47.76732 18.81103 29182 ft 456 kts 128°
2026-05-04 19:25 47.74767 18.84819 29569 ft 458 kts 128°
2026-05-04 19:25 47.72790 18.88518 29978 ft 459 kts 128°
2026-05-04 19:26 47.70790 18.92241 30304 ft 462 kts 128°
2026-05-04 19:26 47.68779 18.95977 30599 ft 465 kts 128°
2026-05-04 19:26 47.66750 18.99741 30924 ft 467 kts 128°
2026-05-04 19:26 47.64717 19.03507 31255 ft 469 kts 128°
2026-05-04 19:27 47.62679 19.07277 31644 ft 468 kts 128°
2026-05-04 19:27 47.60639 19.11043 32056 ft 468 kts 128°
2026-05-04 19:27 47.58600 19.14800 32453 ft 467 kts 128°
2026-05-04 19:27 47.56561 19.18551 32868 ft 467 kts 128°
2026-05-04 19:28 47.54528 19.22287 33268 ft 466 kts 128°
2026-05-04 19:28 47.52498 19.26012 33655 ft 465 kts 128°
2026-05-04 19:28 47.50463 19.29741 34029 ft 465 kts 129°
2026-05-04 19:28 47.48433 19.33456 34350 ft 464 kts 129°
2026-05-04 19:29 47.46432 19.37113 34648 ft 463 kts 129°
2026-05-04 19:29 47.44404 19.40814 34942 ft 463 kts 129°
2026-05-04 19:29 47.42377 19.44508 35231 ft 463 kts 129°
2026-05-04 19:29 47.40348 19.48201 35520 ft 462 kts 129°
2026-05-04 19:30 47.38327 19.51873 35833 ft 461 kts 128°
2026-05-04 19:30 47.36303 19.55546 36099 ft 461 kts 128°
2026-05-04 19:30 47.34278 19.59218 36348 ft 461 kts 128°
2026-05-04 19:30 47.32255 19.62880 36597 ft 460 kts 128°
2026-05-04 19:31 47.30228 19.66545 36849 ft 460 kts 129°
2026-05-04 19:31 47.28208 19.70192 37035 ft 460 kts 129°
2026-05-04 19:31 47.26186 19.73839 37048 ft 459 kts 129°
2026-05-04 19:32 47.22149 19.81101 37059 ft 458 kts 128°
2026-05-04 19:32 47.18143 19.88289 37050 ft 457 kts 128°
2026-05-04 19:33 47.14107 19.95513 37042 ft 457 kts 128°
2026-05-04 19:33 47.10069 20.02723 37049 ft 457 kts 129°
2026-05-04 19:34 47.06023 20.09927 37053 ft 457 kts 129°
2026-05-04 19:34 47.01968 20.17126 37053 ft 457 kts 128°
2026-05-04 19:35 46.97940 20.24262 37065 ft 457 kts 128°
2026-05-04 19:35 46.93885 20.31433 37062 ft 457 kts 127°
2026-05-04 19:36 46.90512 20.39259 37055 ft 455 kts 118°
2026-05-04 19:36 46.87383 20.47309 37052 ft 455 kts 119°
2026-05-04 19:37 46.84145 20.55258 37053 ft 455 kts 120°
2026-05-04 19:37 46.80858 20.63158 37052 ft 455 kts 120°
2026-05-04 19:38 46.77557 20.71047 37062 ft 455 kts 120°
2026-05-04 19:38 46.74250 20.78923 37057 ft 456 kts 120°
2026-05-04 19:39 46.70937 20.86797 37054 ft 456 kts 120°
2026-05-04 19:39 46.67615 20.94670 37055 ft 456 kts 120°
2026-05-04 19:40 46.64284 21.02539 37065 ft 456 kts 120°
2026-05-04 19:40 46.60948 21.10398 37061 ft 457 kts 120°
2026-05-04 19:41 46.57623 21.18209 37069 ft 457 kts 120°
2026-05-04 19:41 46.54272 21.26057 37070 ft 457 kts 120°
2026-05-04 19:42 46.50900 21.33880 37070 ft 457 kts 120°
2026-05-04 19:42 46.47532 21.41707 37082 ft 457 kts 120°
2026-05-04 19:43 46.44164 21.49537 37071 ft 457 kts 120°
2026-05-04 19:43 46.40790 21.57361 37073 ft 458 kts 120°
2026-05-04 19:44 46.37411 21.65174 37075 ft 458 kts 120°
2026-05-04 19:44 46.34594 21.71668 37077 ft 458 kts 120°
2026-05-04 19:45 46.31202 21.79470 37077 ft 458 kts 120°
2026-05-04 19:45 46.27802 21.87267 37085 ft 458 kts 120°
2026-05-04 19:46 46.24394 21.95059 37091 ft 458 kts 120°
2026-05-04 19:46 46.20984 22.02836 37089 ft 458 kts 120°
2026-05-04 19:47 46.17565 22.10609 37098 ft 459 kts 120°
2026-05-04 19:47 46.14138 22.18379 37105 ft 458 kts 121°
2026-05-04 19:48 46.10712 22.26125 37105 ft 458 kts 121°
2026-05-04 19:48 46.07301 22.33813 37103 ft 458 kts 121°
2026-05-04 19:49 46.03867 22.41533 37101 ft 458 kts 121°
2026-05-04 19:49 46.00427 22.49246 37106 ft 458 kts 121°
2026-05-04 19:50 45.96985 22.56942 37105 ft 457 kts 121°
2026-05-04 19:50 45.93537 22.64628 37103 ft 457 kts 121°
2026-05-04 19:51 45.90087 22.72298 37104 ft 457 kts 121°
2026-05-04 19:51 45.86627 22.79970 37103 ft 457 kts 121°
2026-05-04 19:52 45.83166 22.87621 37102 ft 457 kts 121°
2026-05-04 19:52 45.79725 22.95210 37106 ft 457 kts 121°
2026-05-04 19:53 45.76252 23.02847 37112 ft 457 kts 121°
2026-05-04 19:53 45.72775 23.10473 37110 ft 457 kts 121°
2026-05-04 19:54 45.69296 23.18082 37114 ft 457 kts 121°
2026-05-04 19:54 45.65831 23.25704 37114 ft 456 kts 119°
2026-05-04 19:55 45.62666 23.33593 36859 ft 457 kts 117°
2026-05-04 19:55 45.61091 23.37533 36596 ft 457 kts 118°
2026-05-04 19:55 45.59494 23.41455 36337 ft 457 kts 118°
2026-05-04 19:55 45.57880 23.45364 36087 ft 457 kts 118°
2026-05-04 19:56 45.56257 23.49263 35833 ft 457 kts 118°
2026-05-04 19:56 45.54627 23.53164 35582 ft 457 kts 118°
2026-05-04 19:56 45.52999 23.57048 35345 ft 457 kts 118°
2026-05-04 19:56 45.51364 23.60944 35101 ft 457 kts 118°
2026-05-04 19:57 45.49731 23.64833 34851 ft 457 kts 118°
2026-05-04 19:57 45.48117 23.68671 34614 ft 457 kts 118°
2026-05-04 19:57 45.46480 23.72557 34375 ft 457 kts 118°
2026-05-04 19:57 45.44843 23.76440 34134 ft 457 kts 118°
2026-05-04 19:58 45.43203 23.80322 33866 ft 458 kts 119°
2026-05-04 19:58 45.41558 23.84213 33444 ft 459 kts 119°
2026-05-04 19:58 45.39904 23.88121 32679 ft 462 kts 119°
2026-05-04 19:58 45.38237 23.92055 31743 ft 467 kts 119°
2026-05-04 19:59 45.36561 23.96004 31104 ft 463 kts 119°
2026-05-04 19:59 45.34903 23.99901 30530 ft 458 kts 119°
2026-05-04 19:59 45.33257 24.03763 29892 ft 455 kts 118°
2026-05-04 19:59 45.31628 24.07583 29296 ft 449 kts 119°
2026-05-04 20:00 45.30022 24.11345 28712 ft 443 kts 119°
2026-05-04 20:00 45.28431 24.15064 28143 ft 437 kts 118°
2026-05-04 20:00 45.26860 24.18731 27568 ft 432 kts 118°
2026-05-04 20:00 45.25309 24.22351 27023 ft 427 kts 118°
2026-05-04 20:01 45.23790 24.25896 26446 ft 423 kts 119°
2026-05-04 20:01 45.22268 24.29437 25887 ft 419 kts 119°
2026-05-04 20:01 45.20758 24.32943 25336 ft 415 kts 119°
2026-05-04 20:01 45.19255 24.36427 24780 ft 412 kts 118°
2026-05-04 20:02 45.17765 24.39880 24240 ft 408 kts 118°
2026-05-04 20:02 45.16285 24.43306 23678 ft 406 kts 118°
2026-05-04 20:02 45.14817 24.46701 23075 ft 401 kts 118°
2026-05-04 20:02 45.13367 24.50051 22551 ft 396 kts 118°
2026-05-04 20:03 45.11929 24.53369 22013 ft 391 kts 118°
2026-05-04 20:03 45.10515 24.56629 21472 ft 387 kts 118°
2026-05-04 20:03 45.09113 24.59856 20947 ft 383 kts 118°
2026-05-04 20:03 45.07721 24.63056 20416 ft 379 kts 118°
2026-05-04 20:04 45.06363 24.66177 19898 ft 375 kts 118°
2026-05-04 20:04 45.04981 24.69347 19367 ft 372 kts 118°
2026-05-04 20:04 45.03644 24.72410 18867 ft 369 kts 118°
2026-05-04 20:04 45.02299 24.75490 18338 ft 367 kts 118°
2026-05-04 20:05 45.00964 24.78542 17804 ft 363 kts 118°
2026-05-04 20:05 44.99645 24.81557 17289 ft 359 kts 118°
2026-05-04 20:05 44.98339 24.84536 16799 ft 355 kts 118°
2026-05-04 20:05 44.97046 24.87482 16298 ft 351 kts 118°
2026-05-04 20:06 44.95762 24.90407 15799 ft 348 kts 118°
2026-05-04 20:06 44.94492 24.93297 15309 ft 345 kts 118°
2026-05-04 20:06 44.93231 24.96161 14822 ft 342 kts 118°
2026-05-04 20:06 44.91981 24.99002 14348 ft 339 kts 118°
2026-05-04 20:07 44.90736 25.01824 13858 ft 337 kts 118°
2026-05-04 20:07 44.89507 25.04609 13354 ft 333 kts 118°
2026-05-04 20:07 44.88288 25.07369 12887 ft 329 kts 118°
2026-05-04 20:07 44.87081 25.10096 12413 ft 326 kts 118°
2026-05-04 20:08 44.85902 25.12760 11972 ft 323 kts 117°
2026-05-04 20:08 44.84718 25.15431 11518 ft 320 kts 117°
2026-05-04 20:08 44.83542 25.18082 11070 ft 318 kts 117°
2026-05-04 20:08 44.82372 25.20719 10614 ft 316 kts 117°
2026-05-04 20:09 44.81219 25.23312 10378 ft 307 kts 117°
2026-05-04 20:09 44.80103 25.25812 10175 ft 298 kts 117°
2026-05-04 20:09 44.79010 25.28268 9906 ft 291 kts 117°
2026-05-04 20:09 44.77941 25.30670 9780 ft 291 kts 117°
2026-05-04 20:10 44.76866 25.33091 9628 ft 292 kts 117°
2026-05-04 20:10 44.75786 25.35517 9298 ft 292 kts 117°
2026-05-04 20:10 44.74712 25.37925 8929 ft 290 kts 117°
2026-05-04 20:10 44.73642 25.40320 8565 ft 287 kts 117°
2026-05-04 20:11 44.72584 25.42680 8222 ft 284 kts 117°
2026-05-04 20:11 44.71533 25.45017 7855 ft 281 kts 116°
2026-05-04 20:11 44.70510 25.47299 7495 ft 278 kts 116°
2026-05-04 20:11 44.69486 25.49587 7141 ft 275 kts 116°
2026-05-04 20:12 44.68469 25.51856 6794 ft 272 kts 116°
2026-05-04 20:12 44.67464 25.54096 6459 ft 270 kts 116°
2026-05-04 20:12 44.66467 25.56316 6096 ft 267 kts 117°
2026-05-04 20:12 44.65480 25.58514 5765 ft 265 kts 117°
2026-05-04 20:13 44.64504 25.60688 5420 ft 262 kts 117°
2026-05-04 20:13 44.63533 25.62845 5088 ft 260 kts 118°
2026-05-04 20:13 44.62571 25.64983 4757 ft 258 kts 118°
2026-05-04 20:13 44.61617 25.67103 4417 ft 256 kts 118°
2026-05-04 20:14 44.60670 25.69205 4024 ft 256 kts 119°
2026-05-04 20:14 44.59723 25.71306 3723 ft 254 kts 119°
2026-05-04 20:14 44.58783 25.73396 3478 ft 251 kts 120°
2026-05-04 20:14 44.57806 25.75564 3505 ft 267 kts 121°
2026-05-04 20:15 44.56837 25.77703 3510 ft 252 kts 121°
2026-05-04 20:15 44.55925 25.79710 3502 ft 237 kts 120°
2026-05-04 20:15 44.55078 25.81593 3494 ft 219 kts 116°
2026-05-04 20:15 44.54731 25.83593 3377 ft 212 kts 89°
2026-05-04 20:16 44.54798 25.85668 3110 ft 213 kts 82°
2026-05-04 20:16 44.54973 25.87687 2850 ft 210 kts 82°
2026-05-04 20:16 44.55119 25.89690 2634 ft 192 kts 82°
2026-05-04 20:16 44.55252 25.91456 2401 ft 172 kts 82°
2026-05-04 20:17 44.55367 25.92998 2200 ft 151 kts 82°
2026-05-04 20:17 44.55472 25.94394 2015 ft 139 kts 82°
2026-05-04 20:17 44.55575 25.95744 1856 ft 139 kts 82°
2026-05-04 20:17 44.55676 25.97095 1686 ft 138 kts 82°
2026-05-04 20:18 44.55777 25.98434 1519 ft 138 kts 83°
2026-05-04 20:18 44.55877 25.99767 1354 ft 137 kts 83°
2026-05-04 20:18 44.55976 26.01093 1184 ft 136 kts 83°
2026-05-04 20:18 44.56075 26.02409 1022 ft 135 kts 83°
2026-05-04 20:19 44.56167 26.03704 886 ft 133 kts 85°
2026-05-04 20:19 44.56257 26.04994 746 ft 133 kts 84°
2026-05-04 20:19 44.56359 26.06282 564 ft 132 kts 83°
2026-05-04 20:19 44.56457 26.07555 380 ft 131 kts 84°
2026-05-04 20:20 44.56548 26.08765 313 ft 104 kts 84°
2026-05-04 20:20 44.56601 26.09496 314 ft 52 kts 85°
2026-05-04 20:20 44.56636 26.09951 317 ft 46 kts 84°
2026-05-04 20:20 44.56669 26.10381 318 ft 43 kts 84°
2026-05-04 20:21 44.56692 26.10697 317 ft 19 kts 82°
2026-05-04 20:21 44.56749 26.10760 318 ft 9 kts
2026-05-04 20:21 44.56898 26.10739 316 ft 12 kts 352°
2026-05-04 20:22 44.56988 26.10716 317 ft 14 kts 339°
2026-05-04 20:22 44.57044 26.10613 317 ft 15 kts 300°
2026-05-04 20:22 44.57063 26.10463 315 ft 17 kts 265°
2026-05-04 20:22 44.57050 26.10285 316 ft 20 kts 264°
2026-05-04 20:23 44.57035 26.10101 316 ft 18 kts 264°
2026-05-04 20:23 44.57022 26.09939 316 ft 12 kts 262°
2026-05-04 20:23 44.56989 26.09914 316 ft 8 kts 180°
2026-05-04 20:23 44.56931 26.09920 316 ft 6 kts 174°
2026-05-04 20:24 44.56929 26.09921 316 ft 0 kts 174°